This is the latest recevied weather packets stored in our database for station/object JS2WAD-13. If no packets are shown the sender has not sent any weather packets the latest 10 day(s).
| Time | Temp. | Humidity | Pressure | Rain* | Wind** | Luminosity | Snow |
|---|---|---|---|---|---|---|---|
| 1777936585 | 13.89° C | 60% | 911.4 hPa | 0 mm | - | 42 W/m² | - |
| 1777936285 | 13.89° C | 62% | 911.3 hPa | 0 mm | - | 46 W/m² | - |
| 1777935985 | 13.33° C | 58% | 911.3 hPa | 0 mm | - | 35 W/m² | - |
| 1777935685 | 13.33° C | 58% | 911.3 hPa | 0 mm | - | 42 W/m² | - |
| 1777935385 | 13.33° C | 61% | 911.3 hPa | 0 mm | - | 42 W/m² | - |
| 1777935085 | 13.33° C | 61% | 911.2 hPa | 0 mm | - | 39 W/m² | - |
| 1777934785 | 13.33° C | 65% | 911.3 hPa | 0 mm | - | 40 W/m² | - |
| 1777934485 | 12.78° C | 59% | 911.3 hPa | 0 mm | - | 39 W/m² | - |
| 1777934185 | 12.78° C | 63% | 911.3 hPa | 0 mm | - | 40 W/m² | - |
| 1777933885 | 12.78° C | 63% | 911.2 hPa | 0 mm | - | 37 W/m² | - |
| 1777933585 | 12.78° C | 62% | 911.3 hPa | 0 mm | - | 39 W/m² | - |
| 1777933285 | 12.78° C | 65% | 911.2 hPa | 0 mm | - | 33 W/m² | - |
| 1777932985 | 12.78° C | 64% | 911.2 hPa | 0 mm | - | 32 W/m² | - |
| 1777932685 | 12.78° C | 64% | 911 hPa | 0 mm | - | 28 W/m² | - |
| 1777932385 | 12.78° C | 66% | 911 hPa | 0 mm | - | 26 W/m² | - |
| 1777932085 | 12.22° C | 66% | 910.9 hPa | 0 mm | - | 26 W/m² | - |
| 1777931785 | 12.22° C | 65% | 910.9 hPa | 0 mm | - | 25 W/m² | - |
| 1777931485 | 12.22° C | 69% | 910.8 hPa | 0 mm | - | 30 W/m² | - |
| 1777931185 | 12.22° C | 69% | 910.8 hPa | 0 mm | - | 32 W/m² | - |
| 1777930885 | 12.22° C | 73% | 910.7 hPa | 0 mm | - | 28 W/m² | - |
| 1777930585 | 12.22° C | 70% | 910.7 hPa | 0 mm | - | 26 W/m² | - |
| 1777930285 | 12.22° C | 67% | 910.6 hPa | 0 mm | - | 26 W/m² | - |
| 1777929985 | 12.22° C | 67% | 910.5 hPa | 0 mm | - | 16 W/m² | - |
| 1777929685 | 12.22° C | 69% | 910.5 hPa | 0 mm | - | 21 W/m² | - |
| 1777929385 | 12.22° C | 68% | 910.5 hPa | 0 mm | - | 26 W/m² | - |
* Rain latest hour (hover to see other rain measurements)
** Current wind speed in m/s (hover to see current wind gust speed)